Location: Bacea
(45.9500°N, 22.6667°E)
Time: 22:59:44
(UTC+00:00)

Cosmos 1953 - Pass Details

Date: 01 June 2022
Orbit: 533 x 555 km, 82.5° (Epoch: 01 July)

Event Time Altitude Azimuth Distance (km) Brightness Sun altitude
Rises 23:03:20 0° 339° (NNW) 2,716 6.9 -21.4°
Reaches altitude 10° 23:05:46 10° 326° (NW) 1,814 5.6 -21.3°
Maximum altitude 23:09:02 25° 271° (W) 1,123 3.8 -21.2°
Enters shadow 23:09:04 25° 270° (W) 1,123 3.8 -21.2°
